Lid_Strength_Index
9 12 14 13 12 12 13 14 15 13 10 12 12 12 11 10 10 10 9 9 8 8 6 6 6 6 5 5 5 4 4 3 2 2 2 2 2 2 1 1 1 0 1 1
12 15 12 11 11 12 13 14 15 13 11 12 13 14 12 11 11 11 10 10 9 9 9 8 8 7 6 6 5 5 4 3 3 2 2 2 2 2 1 1 1 1 1 1
12 12 11 11 11 12 12 12 12 14 12 11 14 16 13 12 11 10 9 9 9 9 9 9 8 8 7 6 6 5 4 4 3 2 1 2 2 2 2 2 2 1 1 1
10 10 11 10 11 10 13 10 10 11 13 18 14 21 16 14 13 11 11 11 10 10 9 8 8 8 7 6 6 5 4 4 4 3 2 2 3 3 2 2 2 1 1 1
11 10 11 11 11 10 12 11 12 12 14 16 17 20 18 15 15 12 11 10 9 9 8 8 8 8 8 7 7 6 5 5 4 4 4 3 3 3 2 2 2 2 1 1
10 7 9 10 9 9 9 11 12 12 14 21 16 17 19 16 15 13 11 10 9 10 9 8 8 7 7 6 6 5 5 4 3 4 3 3 3 3 3 3 3 2 2 1
11 10 8 8 10 9 10 12 19 20 20 22 16 17 16 14 12 12 11 11 10 9 9 9 9 8 7 7 7 7 7 7 6 5 5 4 4 3 3 5 5 5 5 4
15 17 11 8 10 12 11 12 17 22 21 20 16 20 16 12 10 10 10 10 9 9 8 8 8 8 8 8 8 8 8 8 7 7 7 6 6 6 6 6 6 6 6 5
14 14 8 8 8 9 12 14 10 15 18 19 17 15 13 11 11 11 11 11 10 9 8 7 8 8 8 9 9 9 8 8 8 8 7 7 7 7 7 7 7 7 7 6
11 15 10 9 8 8 10 9 15 15 22 22 18 18 17 13 12 11 11 10 9 9 8 7 7 8 8 9 9 9 8 9 8 8 8 8 9 9 8 8 9 9 8 8
10 12 13 10 12 13 12 13 12 12 15 19 19 18 12 12 11 10 10 9 10 9 8 8 7 8 9 9 9 9 9 9 10 9 9 9 10 9 9 9 9 9 9 9
9 12 16 14 10 9 9 12 11 16 17 16 16 17 10 10 10 10 10 9 9 9 9 8 7 8 9 10 10 10 10 10 10 10 10 10 10 10 10 10 10 9 9 8
9 13 17 16 12 10 12 11 10 11 13 16 18 17 9 9 10 9 9 9 8 8 9 8 8 9 9 10 10 11 11 11 11 10 11 11 11 11 10 10 10 9 9 9
7 12 14 17 14 12 14 12 11 11 16 16 15 15 13 11 10 10 9 10 9 9 9 9 8 8 8 9 10 10 11 10 11 11 11 11 11 11 10 10 10 10 9 10
9 15 13 12 12 11 12 12 12 13 12 15 14 13 12 11 11 11 10 9 9 9 9 9 9 8 8 8 9 10 10 11 11 11 11 11 11 11 10 11 11 10 10 10
9 15 13 15 12 12 14 12 11 11 11 12 12 12 9 9 9 9 8 8 9 8 8 8 7 8 7 8 9 9 10 10 10 11 11 10 10 10 10 10 10 10 10 10
11 13 14 17 13 14 16 13 11 11 10 11 14 10 8 9 8 8 8 7 8 8 7 7 7 7 6 6 7 8 9 9 10 10 10 11 11 11 11 11 11 11 11 11
11 13 13 16 17 20 13 9 9 10 10 9 9 9 8 8 7 7 6 6 6 6 7 6 6 6 6 5 6 7 8 9 10 10 11 12 13 12 12 12 12 12 12 12
8 11 15 17 17 14 12 11 11 11 11 8 8 8 8 7 8 8 6 6 6 6 6 6 6 5 5 5 7 8 9 10 10 11 12 13 14 14 14 13 14 13 14 13
9 9 13 15 18 20 12 9 9 9 15 9 8 8 8 8 11 9 6 6 7 6 5 6 7 8 7 8 9 10 10 11 11 12 13 13 14 14 14 14 14 14 13 13
14 13 15 15 17 15 10 10 8 15 13 8 8 7 7 9 8 7 7 7 6 6 7 8 9 9 10 10 10 10 11 12 13 13 14 14 14 14 14 14 14 14 14 13
14 15 16 16 17 18 8 9 11 9 8 8 8 7 8 8 7 7 7 7 7 7 9 10 11 12 11 11 11 11 14 14 14 14 15 15 15 15 15 16 15 15 14 14
14 11 14 13 13 9 8 9 7 7 7 8 8 7 7 8 8 8 8 8 8 8 9 10 12 13 14 13 12 15 16 16 16 17 17 17 16 16 15 15 16 16 15 14
11 10 12 11 10 9 9 8 8 8 8 7 7 7 7 8 8 9 9 9 9 10 11 12 14 15 16 17 17 17 17 17 18 18 18 18 18 16 16 16 16 16 16 16
10 10 12 12 11 10 9 9 7 8 7 8 8 8 8 8 9 9 9 9 10 11 12 14 15 16 18 19 20 21 20 19 19 19 18 18 17 17 17 17 17 16 16 16
11 11 12 13 9 9 9 9 8 8 8 8 8 9 9 8 9 9 10 10 11 14 15 16 17 18 21 22 23 24 23 20 19 19 18 18 18 18 18 18 18 15 15 15